Theta_e
310 310 310 310 310 310 310 310 310 310 311 310 311 311 311 311 311 312 311 311 310 311 311 312 312 310 310 311 311 311 311 311 312 313 313 313 313 312 313 313 313 313 313 313 313 313 313 314 315 314 314 314 314 315 315 316 315 318 330 331 324 323 323 319 317 314 317 320 312 310 313 313 314 313 313 313 313 313 313 314 314 314 314 314 314 313 314 314
310 310 310 310 310 310 310 310 310 310 311 311 311 311 311 312 311 312 311 310 310 311 311 312 311 310 310 311 311 311 311 312 313 313 313 313 313 313 313 313 312 313 312 313 313 313 314 313 314 314 314 314 314 315 315 315 314 318 327 327 326 327 318 313 313 310 312 316 312 311 312 312 315 313 313 314 313 313 313 314 313 314 314 314 314 314 314 314
309 310 310 310 310 310 310 310 310 310 311 311 311 311 311 311 312 312 311 310 311 311 312 312 310 310 310 311 311 311 312 313 313 313 314 312 312 313 312 313 312 313 313 313 313 312 313 314 315 315 314 314 314 315 314 315 314 313 321 328 327 320 312 310 312 311 312 313 311 311 311 312 313 313 313 313 312 312 313 314 313 314 314 314 314 314 314 314
309 310 310 310 310 310 310 310 310 310 310 311 311 311 311 312 312 311 311 310 310 311 311 311 310 310 310 311 311 311 313 313 313 314 314 312 313 312 312 313 312 313 313 313 313 313 314 314 315 314 314 315 313 315 313 313 313 311 318 326 317 310 311 312 311 312 312 312 312 311 311 312 312 313 313 312 313 314 313 314 314 314 314 314 314 314 314 315
309 310 310 310 310 310 310 310 310 311 310 311 311 311 311 312 312 311 311 310 311 311 311 311 309 310 310 311 311 311 313 313 313 313 313 312 313 312 312 313 313 313 313 313 313 313 314 314 315 315 315 314 314 316 313 312 313 312 313 313 309 308 313 313 311 312 312 312 312 311 312 313 312 313 312 312 314 316 314 314 314 314 314 314 314 314 314 314
309 310 310 309 310 310 310 310 310 310 311 311 311 312 312 312 312 311 310 310 311 310 311 310 309 310 311 311 311 311 313 313 312 312 312 313 312 313 313 313 314 313 313 313 313 314 315 315 315 315 314 313 314 315 314 311 313 316 313 308 309 310 312 312 311 312 312 312 312 311 313 313 312 313 312 312 313 315 314 314 314 313 314 314 314 314 314 314
310 309 310 310 310 310 310 310 310 310 311 311 311 312 312 312 312 311 310 310 310 310 310 309 309 310 310 311 312 311 312 312 312 312 313 313 312 313 313 313 314 313 313 313 314 314 315 315 315 314 314 313 312 312 313 312 312 317 316 310 310 310 311 312 312 312 312 312 312 312 312 312 313 313 312 312 314 315 314 314 314 314 314 314 314 314 314 314
309 309 310 309 310 310 310 310 310 310 310 311 311 312 312 312 311 310 310 310 309 309 309 308 309 310 310 311 311 312 311 311 312 312 312 312 312 313 313 313 314 314 314 313 314 314 314 315 315 314 313 313 313 312 312 313 313 316 315 311 311 311 312 312 312 312 312 312 312 313 313 312 312 311 310 313 315 314 314 314 314 314 314 314 315 314 314 314
309 309 309 310 310 310 310 310 310 310 310 311 311 311 312 311 311 310 310 309 309 309 308 308 309 309 311 311 311 312 312 312 312 312 312 312 313 313 313 314 314 314 314 314 314 314 314 314 314 315 314 313 313 312 312 314 314 313 313 312 312 312 312 312 312 312 312 312 312 313 312 312 311 311 312 314 315 314 314 314 314 314 314 315 314 314 314 313
309 309 310 310 310 310 310 310 310 310 310 311 312 311 311 311 310 310 309 308 308 308 308 308 309 310 310 311 312 312 312 312 312 313 312 312 312 313 313 313 314 314 314 314 314 314 315 315 315 314 314 314 313 312 312 315 314 312 312 312 313 313 313 313 312 312 312 312 312 314 313 311 311 312 315 316 315 315 314 314 314 315 314 315 314 314 314 313
309 309 309 310 309 310 309 309 310 310 311 311 311 311 310 310 309 308 307 307 307 308 308 308 309 309 310 312 312 312 314 313 313 313 312 312 312 313 313 312 313 314 314 314 314 315 315 315 315 314 315 314 313 312 311 312 313 312 313 314 313 313 314 313 313 312 313 313 312 313 312 311 311 313 315 314 315 315 314 315 314 314 315 314 314 314 314 314
309 309 309 309 309 309 309 310 310 310 311 310 310 310 309 309 308 307 306 306 307 308 308 308 309 310 311 311 311 313 315 315 314 313 312 312 312 312 312 312 312 313 314 315 315 315 315 316 315 315 315 314 314 314 313 313 313 313 314 316 317 318 316 312 311 312 312 314 312 312 314 315 314 313 315 313 313 315 314 315 315 314 314 314 314 314 314 314
309 308 309 309 309 309 310 310 310 310 310 309 309 308 307 307 306 306 306 307 307 308 308 308 309 310 310 311 311 312 313 314 314 314 313 312 312 312 312 312 312 313 314 314 315 316 316 316 316 315 314 314 314 313 313 312 312 315 313 315 321 323 320 311 309 311 311 313 312 312 317 324 321 313 313 314 313 314 314 314 315 314 314 314 314 314 314 314
309 309 309 309 310 310 310 309 308 308 308 307 307 306 306 306 306 307 307 307 308 308 308 309 309 310 310 311 312 312 312 312 313 314 314 312 312 312 312 312 312 312 313 314 315 315 316 316 316 315 314 314 313 312 318 315 315 318 311 317 324 319 320 315 308 311 312 312 311 312 317 323 323 314 312 313 313 313 314 314 314 314 314 314 314 313 314 314
309 309 309 309 309 308 307 307 306 306 306 306 306 306 306 306 307 307 307 307 308 308 308 308 309 310 310 311 311 312 312 311 312 313 314 313 312 313 312 311 311 312 312 313 315 315 316 316 315 315 313 314 314 316 324 321 321 321 312 321 324 316 325 323 308 308 313 311 309 313 318 320 319 314 312 313 313 312 313 314 314 314 314 313 314 314 314 314
307 307 307 307 306 306 306 305 305 306 305 306 306 306 306 307 307 307 307 308 308 308 309 309 310 311 311 310 311 312 311 311 311 313 314 313 312 312 312 311 311 312 312 313 315 315 316 316 315 314 312 314 319 327 330 324 326 324 316 321 323 318 325 322 310 306 309 310 310 312 317 321 318 313 311 312 312 312 312 313 314 314 314 314 314 314 314 314
306 305 305 305 305 305 305 305 306 306 306 306 306 306 306 307 307 307 308 308 309 309 309 310 310 310 311 311 312 313 312 311 311 312 314 313 312 312 312 312 312 311 312 313 314 315 315 315 314 313 314 314 318 328 327 321 323 322 317 319 321 320 319 319 318 309 306 310 312 312 313 317 317 311 311 312 311 311 312 313 314 314 314 314 314 314 314 314
306 306 306 306 306 306 306 306 306 306 306 306 307 307 308 308 309 309 309 309 309 309 310 310 310 311 312 311 312 313 313 312 311 312 313 313 313 312 312 312 312 312 312 313 314 315 314 313 314 317 319 317 318 323 323 322 324 322 322 323 320 318 316 319 322 312 308 312 314 314 314 314 314 311 311 312 311 311 312 313 313 313 314 314 314 314 314 314
307 307 307 307 307 308 308 308 308 308 308 308 309 309 309 309 309 309 309 309 310 310 311 311 311 314 314 311 311 313 313 312 311 312 313 313 313 312 313 312 312 312 311 314 315 313 314 315 316 318 320 321 320 321 323 324 324 324 329 333 327 321 319 321 323 313 307 312 315 315 314 314 313 312 311 312 311 310 311 312 312 312 313 313 314 314 314 314
308 309 309 309 309 309 309 309 309 309 309 309 309 309 309 309 310 310 309 309 310 310 312 312 310 312 313 311 310 313 314 312 312 312 313 314 313 313 313 311 313 313 312 316 316 311 314 318 320 321 322 324 321 318 320 321 321 323 327 331 326 321 322 322 321 312 305 312 319 316 313 314 313 312 311 310 310 308 309 310 311 312 313 314 314 314 315 314
309 309 310 310 310 310 310 310 310 309 309 309 309 309 309 309 310 310 308 309 309 309 311 311 311 310 312 312 311 312 313 313 313 313 313 314 314 313 313 313 313 314 311 311 313 312 315 319 322 321 317 317 319 317 319 319 321 325 324 323 322 321 323 320 316 313 308 312 320 318 315 314 313 313 310 309 308 308 309 309 310 313 313 315 315 314 315 314
309 310 310 310 310 310 310 310 310 309 308 308 308 308 308 309 311 310 309 309 309 309 309 310 310 311 312 312 312 312 313 313 314 314 314 313 314 313 312 313 314 315 312 310 314 317 318 320 321 313 307 309 314 316 319 320 323 327 322 319 321 321 320 317 314 314 311 311 319 322 317 314 313 313 311 309 309 310 311 311 312 313 313 314 315 314 315 314
310 310 310 310 311 311 311 310 310 309 308 308 307 308 308 309 311 311 311 311 311 310 309 309 310 310 311 311 312 313 312 313 314 314 314 312 313 313 311 313 317 318 315 315 318 319 319 321 317 306 305 314 317 314 318 319 321 324 321 321 323 320 319 318 316 315 313 311 317 321 316 314 314 313 313 311 310 312 312 312 312 312 313 315 315 314 314 313
311 310 310 310 310 311 311 310 310 310 308 308 307 307 308 308 310 311 310 310 311 311 309 310 310 309 310 311 311 313 312 313 313 313 314 313 312 312 311 313 317 317 316 316 317 317 317 315 308 303 309 321 319 314 317 318 319 322 321 322 325 324 320 318 317 318 316 313 314 318 319 320 320 318 319 315 310 311 312 312 313 313 314 315 314 313 313 313
311 311 310 310 310 311 311 310 310 310 309 308 307 307 308 308 308 310 309 310 311 311 310 310 311 310 310 310 311 312 312 312 313 313 313 313 312 312 311 310 314 317 317 316 314 316 317 309 307 311 313 319 320 317 320 320 322 323 320 321 322 323 320 317 318 319 321 322 316 314 319 328 329 326 326 326 322 319 313 309 312 315 315 314 314 315 314 314
312 311 311 310 310 310 310 310 310 310 309 309 308 307 307 308 309 309 311 314 313 311 310 310 311 311 310 310 311 311 313 313 312 313 313 313 312 312 312 311 310 313 315 314 313 315 314 307 311 319 316 316 318 318 320 318 320 321 317 317 316 315 317 317 317 318 323 325 314 312 320 323 324 322 322 328 331 328 318 312 311 314 315 314 315 316 316 315
312 311 310 310 310 310 310 310 310 310 309 309 309 308 308 309 309 308 311 316 315 312 313 311 310 311 311 311 311 311 314 314 312 313 313 313 312 311 314 314 310 311 310 311 313 313 313 311 313 318 318 317 317 319 319 315 320 322 316 316 317 316 318 318 317 318 322 322 315 316 324 321 320 320 322 323 324 323 322 320 316 312 313 314 315 316 316 316
313 312 311 310 310 310 310 310 310 310 310 310 309 308 309 309 310 310 313 315 313 311 313 311 310 311 311 311 312 311 311 312 312 314 312 312 312 311 313 314 313 315 309 310 316 312 311 316 315 316 319 318 318 320 317 314 319 319 311 313 317 318 321 321 322 323 321 320 318 318 320 321 324 324 322 319 319 322 324 324 318 312 313 314 315 316 316 315
314 314 312 311 311 311 309 309 310 309 310 310 309 309 309 309 310 311 314 313 311 311 312 311 311 310 311 311 310 310 309 310 312 313 312 312 312 312 312 311 310 312 308 309 316 312 310 314 312 313 318 317 317 313 310 315 318 312 306 311 315 316 320 321 325 327 324 323 321 320 320 319 322 324 323 319 320 325 324 320 315 311 314 315 314 315 315 315
316 316 314 312 312 311 309 308 308 308 310 310 309 309 309 310 311 310 311 312 312 311 309 310 311 310 311 311 310 309 310 311 311 312 311 311 312 311 311 310 309 315 314 311 315 313 309 309 308 312 314 313 313 309 306 311 312 308 313 319 319 320 321 322 323 322 323 326 322 319 320 318 318 324 326 321 322 324 322 321 319 313 314 315 315 315 315 315
317 317 316 315 314 312 309 308 308 308 309 309 309 309 309 312 313 311 310 311 311 312 310 311 311 310 311 312 312 311 310 310 310 312 313 312 313 312 311 311 312 319 320 315 316 314 311 312 311 311 310 308 312 313 308 307 306 312 326 326 320 323 322 321 323 321 323 326 319 314 315 316 318 323 326 322 321 321 319 324 327 318 314 315 315 315 315 315
319 319 318 317 316 315 312 309 308 308 308 308 309 309 309 312 312 311 311 311 312 314 314 313 312 311 312 312 313 313 313 313 310 312 315 314 314 313 313 314 314 318 318 315 316 315 314 317 314 310 309 310 318 320 313 310 311 318 326 322 319 322 320 320 323 322 324 321 313 311 314 316 317 319 320 319 321 321 314 314 319 316 314 315 315 314 314 315
319 319 319 318 318 317 315 311 308 307 308 309 310 310 313 313 311 311 312 312 313 313 313 316 314 312 313 313 313 312 312 314 311 311 314 314 315 314 314 315 314 316 318 315 314 315 317 317 313 313 313 312 316 319 317 317 316 319 322 321 321 321 322 327 325 318 318 317 311 309 314 318 319 319 319 317 317 317 312 310 313 314 314 315 314 313 313 314
319 319 319 319 319 319 317 313 309 307 308 310 310 311 313 313 311 311 311 311 315 313 314 316 313 311 312 313 314 313 312 313 312 312 313 313 315 315 316 314 311 317 322 316 314 316 317 316 315 315 314 313 314 315 318 320 316 317 319 319 321 322 325 332 330 323 320 320 315 310 314 323 325 322 319 313 311 312 312 313 313 312 313 314 313 313 312 312
318 318 318 319 319 320 319 314 309 308 310 311 310 310 310 310 309 311 310 312 318 317 314 313 313 312 313 313 314 313 312 313 312 313 314 314 315 315 316 314 311 315 319 315 315 315 315 317 317 311 309 313 314 311 315 318 316 316 317 317 319 321 322 319 316 318 319 320 320 315 318 323 322 321 316 310 311 311 310 311 311 313 313 312 312 313 312 312
317 317 317 318 319 319 320 316 310 309 312 313 311 309 309 309 309 311 311 313 318 317 313 314 316 316 314 313 314 312 311 314 314 314 315 314 315 316 315 314 311 312 313 313 318 317 315 317 314 310 310 311 311 310 311 313 315 315 316 320 318 314 321 320 312 309 312 316 320 319 320 320 317 319 316 314 316 315 311 310 309 312 313 311 312 314 313 313
315 316 317 317 318 319 320 317 312 310 313 313 311 310 310 309 311 312 312 312 313 314 314 315 316 317 315 314 316 314 312 315 314 315 316 314 315 317 315 314 312 311 311 313 318 319 319 319 313 311 314 310 306 309 309 307 312 318 319 320 314 310 319 324 318 318 318 319 322 321 320 319 317 319 318 316 318 317 316 314 310 310 311 310 313 315 314 314
314 315 316 316 317 317 319 318 314 312 311 311 312 313 313 311 312 312 311 311 312 314 316 314 313 315 316 314 316 314 312 315 314 314 316 314 315 316 314 314 313 310 310 311 314 317 317 317 315 309 313 311 306 310 314 309 308 315 317 315 315 319 321 319 320 324 324 322 326 324 318 316 316 318 318 319 323 324 320 317 315 313 310 311 316 317 316 315
313 313 314 315 316 316 317 318 315 312 311 311 312 314 314 313 312 311 311 311 313 313 314 314 313 315 315 314 315 314 312 314 314 314 316 314 314 314 312 313 314 310 309 310 313 316 315 315 317 310 309 311 311 313 318 316 310 310 312 310 314 321 321 319 319 321 321 322 324 325 321 318 318 321 322 320 325 328 324 322 318 312 311 314 316 317 317 316
312 312 312 312 313 315 316 316 314 311 311 312 312 313 313 313 312 312 312 312 313 313 312 315 317 317 316 314 314 314 313 314 313 314 316 314 314 314 311 312 315 311 309 309 311 316 314 312 316 313 309 312 317 316 316 317 314 314 315 315 315 316 316 319 318 316 322 325 324 325 323 318 320 323 323 321 324 325 325 327 321 310 312 318 317 316 317 316
311 311 312 312 311 313 315 315 313 311 310 311 311 311 311 312 312 312 312 312 314 313 313 317 318 317 317 314 314 315 314 314 314 314 315 313 313 316 313 311 313 312 310 310 312 315 315 314 319 318 313 315 320 315 310 313 315 315 316 316 316 316 317 318 317 315 319 321 321 322 320 318 321 320 322 325 327 320 316 318 317 311 313 317 317 316 316 316
311 311 312 312 311 313 314 314 313 311 309 310 310 310 310 311 312 312 311 312 314 314 314 319 319 316 316 315 315 315 315 315 314 314 316 315 313 315 313 310 310 311 311 313 314 313 313 317 321 320 316 316 315 307 302 307 312 313 316 317 316 316 318 320 319 318 318 317 316 317 319 319 319 319 323 322 316 311 308 308 311 313 315 315 315 316 316 315
311 311 312 312 312 313 314 314 313 310 308 308 309 309 309 309 312 313 312 312 313 314 315 318 318 314 314 316 316 315 315 315 314 314 317 317 314 314 312 309 310 311 312 315 315 312 313 317 318 319 319 315 310 306 303 306 311 313 316 317 316 315 317 318 318 317 319 320 317 317 320 318 315 315 312 307 304 305 308 308 308 313 316 315 314 316 316 315
312 311 312 313 313 314 314 313 312 310 307 306 307 308 308 309 311 312 314 313 314 315 317 318 316 313 315 318 317 315 315 315 315 314 315 317 315 311 310 310 311 312 312 314 315 312 314 318 316 317 319 316 313 312 311 311 313 316 319 317 314 315 316 317 317 316 318 321 318 318 320 317 317 315 308 307 310 309 308 309 309 310 315 316 315 315 315 315
312 311 311 313 314 314 314 313 311 310 308 307 307 308 308 309 310 311 312 313 313 314 316 317 315 314 317 317 315 315 315 315 316 315 314 316 315 309 308 310 311 311 311 313 312 311 317 320 315 314 317 316 316 317 317 316 314 316 320 316 313 315 316 317 318 317 317 319 317 318 319 316 318 318 314 314 319 316 312 311 310 311 314 315 314 314 315 315
311 311 311 312 313 313 313 312 310 309 309 308 308 308 308 309 310 310 311 312 313 312 314 315 314 315 317 316 314 316 315 314 318 318 314 316 317 311 308 309 310 310 311 312 311 314 322 322 315 314 316 316 316 318 319 318 317 317 319 316 313 314 315 316 317 317 318 319 318 317 317 317 318 318 319 320 321 323 319 312 310 313 315 315 315 314 314 315
309 311 311 311 312 311 311 311 310 310 309 308 309 309 308 309 310 310 311 312 313 312 313 314 314 316 318 317 316 316 316 314 317 318 316 316 316 312 308 308 309 310 311 312 311 316 323 320 315 316 316 315 316 319 318 316 317 317 317 315 315 313 314 316 317 317 318 319 319 317 316 318 317 316 322 325 325 326 318 309 311 314 315 315 315 314 314 314
308 309 309 310 312 312 311 311 310 311 310 309 309 308 308 309 309 311 311 311 312 313 313 314 314 315 317 317 317 317 317 316 316 316 317 316 316 314 311 309 309 309 311 312 311 315 320 319 317 318 316 315 316 317 317 317 316 316 316 315 315 314 313 315 315 316 318 318 318 317 317 319 316 314 319 320 320 320 316 313 315 315 314 314 314 313 315 315
306 307 307 309 311 311 311 311 310 311 310 309 309 308 308 309 309 310 311 311 311 312 313 313 313 314 315 316 317 317 317 317 317 317 317 317 317 317 316 315 311 308 310 313 312 312 317 318 318 317 316 317 317 316 318 319 316 316 317 316 315 314 313 314 314 315 316 317 317 317 318 318 315 316 318 317 315 315 315 315 315 314 314 315 314 314 314 314
305 306 306 307 308 309 310 311 311 311 310 310 310 309 308 309 310 309 311 312 311 311 312 313 313 313 314 314 315 316 316 317 318 318 317 317 316 317 317 317 314 310 309 313 313 311 314 317 319 317 317 318 318 316 317 318 316 316 318 317 315 313 313 313 314 314 315 316 316 316 317 316 314 315 317 315 314 314 314 313 313 314 316 315 314 314 314 314
303 305 305 305 306 307 309 310 311 311 311 310 310 310 309 309 309 309 310 311 311 312 312 312 312 313 313 313 314 315 315 315 316 316 316 315 315 315 315 313 314 314 311 312 314 314 314 317 318 318 318 318 318 317 317 316 315 315 317 317 315 313 312 313 313 314 314 315 315 315 316 316 315 316 315 314 313 312 311 312 313 315 316 315 314 313 314 315
302 303 304 304 304 305 307 308 310 312 312 311 310 310 310 309 309 309 311 311 311 312 312 312 313 314 314 313 314 314 313 314 315 314 314 315 314 314 314 312 313 316 314 312 314 315 315 316 317 317 318 318 318 319 318 316 316 317 317 316 315 314 313 313 313 313 313 314 316 316 316 315 316 317 318 317 315 313 311 313 314 315 315 315 314 313 314 315
Wind_Speed
23 23 22 21 21 21 20 19 18 17 16 15 14 13 12 11 11 10 10 10 10 11 11 11 9 9 8 7 5 3 3 3 2 3 3 4 4 5 5 5 4 2 2 1 1 3 2 1 1 2 4 5 6 7 8 6 5 4 3 4 2 3 4 6 8 7 4 3 8 11 13 8 4 8 8 5 6 7 9 12 11 11 12 11 10 8 6 9
24 23 22 22 21 21 20 19 18 17 15 15 13 13 12 11 11 10 9 10 10 11 11 10 9 9 8 6 5 3 3 2 2 3 4 6 6 6 5 4 2 1 0 1 1 1 2 2 2 3 4 5 5 5 5 4 4 3 3 3 3 6 4 5 10 10 3 3 12 12 12 9 5 10 9 4 4 6 7 10 12 13 13 13 12 10 8 9
24 23 23 22 22 21 20 19 18 17 16 15 14 13 12 11 10 10 9 10 11 11 11 10 9 9 8 6 4 3 2 2 3 4 6 8 8 6 4 2 1 2 3 3 1 1 2 3 3 4 5 6 5 5 5 4 3 2 4 2 4 6 3 4 10 11 3 4 13 12 10 8 5 10 9 5 3 4 8 10 13 15 15 14 13 11 10 10
23 23 22 23 22 22 21 20 18 17 16 15 14 13 12 11 10 10 10 10 11 11 11 10 9 9 8 6 4 3 2 2 3 5 8 9 8 5 2 2 3 3 3 1 2 2 4 4 4 5 6 5 4 5 4 5 2 2 4 2 4 4 2 3 7 7 2 4 12 11 8 6 5 9 9 6 2 4 11 14 14 15 13 11 12 11 11 11
23 23 23 23 22 22 21 20 18 17 16 15 14 13 12 11 10 10 10 11 11 11 11 10 10 10 8 6 4 4 4 3 3 6 8 9 7 3 1 2 3 2 0 1 3 4 5 5 6 5 5 4 4 4 3 5 6 4 2 1 3 5 2 2 3 5 5 5 10 10 7 5 6 8 9 9 6 6 8 9 10 12 11 10 10 11 11 12
24 23 23 23 22 22 21 19 18 17 16 15 14 13 12 12 11 11 11 11 11 11 11 10 10 10 8 7 5 6 5 2 5 8 8 8 5 2 1 2 2 2 1 3 5 5 5 6 5 3 4 3 3 4 3 4 4 4 2 1 5 4 3 3 3 5 6 6 9 9 6 5 6 6 8 13 15 13 9 6 6 7 9 10 11 12 13 13
24 23 23 23 23 22 21 19 18 17 16 15 14 13 13 12 11 11 12 12 11 11 11 11 11 10 9 7 5 6 4 2 6 9 8 7 4 2 1 2 2 3 3 4 4 5 5 5 5 6 6 4 2 3 5 5 5 5 2 2 3 3 3 4 4 6 6 6 7 6 5 4 5 5 6 14 20 18 16 15 12 11 10 11 12 14 14 13
24 24 23 23 23 22 21 20 18 17 16 15 14 14 13 12 12 12 12 12 12 11 11 12 12 11 9 8 5 4 3 1 5 9 8 6 4 2 1 2 3 4 5 5 4 4 4 4 6 6 5 3 3 3 4 6 7 5 3 3 3 3 3 4 5 6 6 4 4 4 4 3 4 5 8 18 21 17 17 18 17 17 15 13 13 13 14 14
25 24 24 24 24 23 21 20 18 17 16 16 15 14 14 13 13 13 13 13 12 12 12 12 12 11 9 8 5 3 3 3 6 9 8 6 4 3 2 2 3 4 5 5 4 3 3 5 5 4 4 5 6 4 4 4 3 3 5 4 3 4 4 4 5 5 5 3 3 3 3 2 3 4 10 19 19 17 18 17 16 16 15 14 13 14 14 15
26 25 25 24 24 22 21 20 18 18 17 16 15 15 14 14 13 13 13 13 12 12 12 13 12 11 10 8 6 2 4 4 7 11 8 6 5 3 2 2 3 3 4 5 5 4 5 5 6 7 8 8 6 5 5 4 4 5 7 7 5 4 3 2 4 3 4 3 2 4 2 2 2 1 7 11 9 11 15 16 17 16 16 15 14 14 15 15
27 26 25 25 24 22 21 20 19 18 18 17 16 15 15 14 14 13 13 13 13 13 12 13 12 12 10 8 7 3 3 4 6 12 11 7 5 4 2 2 3 3 4 5 6 7 8 8 8 8 5 6 6 6 7 6 6 6 6 5 6 5 1 1 2 2 3 2 3 3 1 3 1 2 10 11 8 9 11 13 15 16 16 15 14 14 15 16
26 26 26 25 23 22 22 21 20 19 18 17 17 16 16 15 14 13 13 13 13 13 13 13 12 12 10 8 8 5 2 2 4 10 14 10 6 5 3 3 3 3 3 4 6 7 8 7 6 4 5 8 6 4 7 7 6 6 6 2 5 7 3 3 2 3 3 1 2 2 2 5 3 9 15 12 11 12 12 13 14 15 16 16 16 16 16 17
27 26 26 25 24 23 22 21 20 19 19 18 18 17 16 15 15 14 14 13 13 13 12 12 12 11 9 6 7 7 6 4 3 7 14 13 9 6 5 3 2 3 3 3 5 6 6 5 5 8 11 9 4 5 7 6 6 5 5 2 3 6 4 2 2 1 4 2 3 5 2 6 6 15 17 12 13 13 13 15 15 16 16 17 17 17 18 18
26 27 26 25 24 23 22 20 19 19 19 18 18 17 16 15 14 14 14 13 13 12 12 11 10 10 9 5 4 7 8 8 7 7 12 15 11 8 6 4 3 4 3 3 5 5 6 6 7 10 10 8 9 10 6 5 5 2 2 3 2 1 4 4 1 4 4 4 6 6 2 6 8 11 10 12 15 14 15 16 16 17 17 18 19 19 20 20
22 22 23 23 22 21 20 19 18 17 18 18 17 16 15 15 14 14 13 12 12 11 11 10 9 8 6 4 6 7 8 9 9 8 11 15 13 10 8 5 4 4 3 3 4 4 6 6 7 9 9 10 11 7 3 4 4 3 1 2 3 1 4 7 1 5 3 2 6 5 2 6 9 10 8 9 14 15 17 18 17 18 18 19 20 21 22 22
18 19 19 19 19 19 19 19 18 17 17 17 16 16 15 14 14 14 13 12 12 11 10 8 8 8 4 3 6 7 10 11 11 10 11 14 14 11 9 7 4 4 4 3 4 5 5 5 8 9 7 7 6 4 4 4 4 4 1 2 1 1 3 5 1 1 1 2 4 3 2 4 4 4 3 3 10 14 17 19 19 19 19 19 20 22 23 24
17 18 18 18 19 19 19 18 18 18 17 17 16 15 15 14 14 13 12 12 11 10 9 7 7 6 4 4 6 7 10 12 12 12 11 13 13 11 10 8 5 5 4 4 4 5 4 5 7 6 4 3 3 4 4 2 3 3 3 1 3 2 2 3 3 2 2 2 3 3 3 7 7 7 8 7 8 11 16 21 20 19 19 20 21 24 25 25
17 18 18 18 18 18 18 18 19 18 18 17 16 15 15 13 13 12 11 11 11 9 7 6 6 4 5 8 8 7 9 11 12 12 11 13 13 11 11 8 5 5 4 5 4 4 4 4 5 3 3 4 3 5 3 3 3 3 2 1 2 2 3 4 3 1 1 1 3 3 5 11 12 15 21 18 12 14 19 22 22 21 22 23 25 27 27 28
16 17 18 18 18 17 17 17 18 17 17 17 16 16 15 13 12 10 11 12 12 8 4 9 11 5 2 10 12 8 7 10 12 13 13 13 13 12 10 7 6 6 5 4 2 4 4 4 5 2 1 1 4 5 6 7 6 6 5 4 3 3 4 5 5 3 1 1 4 6 7 11 11 12 20 22 16 17 23 25 26 26 27 28 29 30 30 31
17 16 17 17 17 17 16 16 16 16 16 16 17 17 14 13 9 5 10 13 14 10 4 12 17 8 2 5 13 11 7 10 12 14 15 14 14 13 10 8 6 4 3 3 1 2 4 3 2 4 6 7 7 6 6 5 6 7 5 4 4 4 5 5 3 5 0 2 6 8 7 10 11 10 18 23 15 15 23 25 28 31 31 33 33 34 34 33
17 17 17 16 16 16 15 16 15 15 16 15 18 16 12 14 6 2 11 12 15 17 7 8 16 13 3 3 9 12 9 10 12 15 15 15 15 12 9 7 5 3 1 3 4 2 5 4 6 7 7 7 6 7 8 6 6 6 6 4 2 3 6 5 1 4 1 2 5 5 5 11 11 11 18 22 13 16 26 26 30 34 33 35 35 36 35 33
18 18 18 17 17 16 15 15 14 15 15 15 18 14 9 14 8 4 9 7 12 19 13 10 13 14 11 5 7 12 10 7 9 15 16 16 16 11 9 6 4 3 1 3 5 3 3 3 8 6 9 8 5 6 8 6 6 5 4 4 2 3 4 5 2 4 2 2 5 5 6 10 11 10 17 23 19 22 30 30 32 34 33 37 38 36 35 33
18 18 18 18 18 17 17 16 15 15 15 15 17 13 8 11 9 5 5 2 4 12 17 17 15 15 15 10 9 12 12 6 8 16 18 18 17 12 10 8 4 4 2 3 5 3 2 6 7 9 13 9 6 5 7 6 4 2 4 4 3 2 1 3 3 4 2 1 3 5 8 9 8 9 14 22 23 26 33 32 32 35 36 40 38 35 34 32
18 18 18 18 18 18 17 16 16 15 15 14 15 13 9 7 7 5 2 2 2 5 11 16 17 19 19 14 12 13 13 9 8 15 20 20 17 11 9 7 5 4 4 5 7 6 5 5 3 9 7 7 7 4 6 6 1 2 4 5 4 3 4 5 3 4 2 2 2 4 8 7 4 6 8 11 12 19 28 28 31 37 39 41 39 37 36 35
17 19 19 19 18 18 17 16 17 16 15 14 13 13 10 7 6 3 2 3 3 3 6 11 13 16 20 18 14 13 11 10 10 13 19 22 19 11 6 6 5 4 5 5 6 3 6 4 8 8 4 6 8 4 5 7 2 4 4 7 7 5 4 3 3 5 4 3 3 4 5 6 3 3 7 6 3 10 16 15 24 33 32 33 34 35 35 34
16 18 20 20 19 19 17 14 15 16 16 15 14 13 11 8 6 4 4 4 3 3 3 8 8 9 15 15 15 13 5 7 11 14 19 22 19 11 6 5 3 3 6 6 4 2 2 3 6 7 5 6 6 2 6 7 5 2 4 7 7 5 4 2 0 1 1 3 2 3 2 6 6 4 7 6 4 9 10 11 22 28 25 27 29 29 28 27
15 16 18 20 20 20 18 13 15 18 16 14 15 15 12 10 8 5 4 4 4 5 6 8 8 9 11 13 20 15 2 5 10 12 20 23 18 11 6 4 2 2 6 6 1 2 3 3 3 6 6 5 5 3 6 8 7 3 3 4 6 7 6 4 3 2 2 3 3 2 4 3 8 6 5 4 5 9 11 14 19 17 17 22 24 23 23 22
12 12 13 18 20 20 19 16 16 17 16 14 15 16 13 12 10 7 5 2 2 5 5 6 8 10 12 17 22 13 5 10 8 10 22 23 17 10 5 8 7 5 6 7 4 4 3 6 6 6 5 4 5 4 7 11 6 4 3 6 6 6 5 5 5 2 1 3 4 1 4 2 7 7 3 4 3 7 11 15 14 10 13 16 15 14 15 17
11 12 11 14 18 19 20 19 16 15 15 14 17 17 15 15 11 7 5 1 2 3 3 6 8 8 13 17 14 6 7 6 2 11 21 18 16 8 2 9 8 6 4 3 4 3 1 3 7 7 5 5 4 1 4 8 3 4 7 7 6 5 5 5 4 3 2 3 4 5 5 3 6 5 0 1 1 6 11 12 10 12 13 11 9 8 10 12
13 13 10 12 16 17 19 20 18 16 16 17 19 21 20 17 9 5 2 3 2 2 3 7 7 8 14 13 3 1 4 2 5 14 14 10 11 6 5 8 6 6 1 4 1 2 2 1 3 4 4 5 6 4 3 3 7 11 8 6 7 5 5 4 2 4 2 4 5 6 7 3 4 5 3 3 4 6 8 7 8 10 7 4 4 4 5 8
16 15 13 13 14 14 16 19 20 19 20 22 24 27 23 11 4 4 5 2 1 2 4 4 3 7 14 9 3 3 3 3 6 13 8 4 6 5 7 6 3 4 2 4 1 4 4 1 1 2 5 8 9 6 7 5 8 8 4 4 4 3 4 4 4 4 1 5 4 3 2 1 5 7 3 5 7 6 6 6 7 8 4 4 2 3 5 5
19 18 17 15 13 12 12 14 18 22 24 28 31 29 18 4 1 4 5 1 0 4 5 3 2 6 9 5 3 5 3 2 5 7 4 4 5 5 5 5 5 3 2 5 2 3 2 3 2 1 4 7 7 5 5 4 2 4 4 6 4 2 2 3 3 1 2 6 3 2 1 2 8 8 7 11 12 10 11 12 13 13 11 7 6 8 8 6
20 21 21 19 16 13 11 11 18 24 28 34 33 22 8 2 6 9 7 3 1 2 3 4 2 5 7 6 3 4 3 2 5 5 2 4 4 5 4 3 5 3 2 5 2 1 3 5 1 3 3 8 8 6 3 1 2 4 5 6 4 2 1 3 3 1 4 5 2 1 1 3 6 6 11 17 18 16 17 19 20 19 18 16 15 14 11 9
21 22 24 24 19 14 11 12 20 26 33 38 27 11 4 5 8 10 10 6 0 2 3 4 5 5 5 4 3 4 3 1 4 4 2 4 5 5 5 5 5 2 3 4 3 6 5 6 5 5 3 9 10 5 6 6 5 5 3 5 5 5 5 4 3 3 4 3 3 2 1 4 3 3 7 12 15 17 20 23 24 24 25 22 20 18 15 14
20 21 25 26 23 20 15 15 21 29 37 36 17 5 7 9 8 9 9 4 1 2 3 4 6 6 3 1 2 3 3 1 3 4 2 4 5 5 5 7 9 5 5 4 2 3 4 6 5 2 0 9 9 2 5 7 3 3 3 4 3 5 5 2 3 5 2 2 3 2 4 5 4 6 9 10 11 13 17 19 21 27 30 25 25 26 23 20
19 19 25 30 29 25 22 20 22 32 39 28 9 6 10 10 7 5 6 6 5 6 6 3 4 4 3 1 1 4 2 1 4 3 2 3 3 5 5 6 9 10 7 6 2 2 2 4 5 4 2 3 3 1 3 4 3 2 3 3 4 4 6 4 2 1 3 2 4 2 5 5 4 8 10 9 10 10 11 12 15 24 26 23 28 31 28 25
18 18 26 35 34 28 26 24 23 33 34 17 8 10 9 9 6 5 6 8 10 12 9 4 3 5 5 3 4 7 3 2 4 4 4 3 3 6 7 4 8 14 12 6 2 3 4 2 4 2 1 2 1 3 5 4 4 5 3 6 3 2 4 4 1 2 3 3 4 1 5 5 3 6 4 1 6 10 10 10 14 18 18 20 28 31 28 25
18 16 20 31 34 31 29 26 26 32 23 5 7 11 8 8 4 5 8 9 10 11 8 6 6 5 7 6 5 7 6 4 5 5 4 3 5 7 10 5 8 17 17 8 2 3 4 2 4 1 2 3 3 3 3 4 3 4 4 4 4 3 2 2 2 2 1 3 4 4 5 5 6 6 1 2 7 10 11 11 11 13 15 20 26 27 25 22
15 14 15 21 26 27 28 30 34 34 19 5 9 10 4 5 1 4 10 10 8 9 7 8 5 2 5 7 5 7 8 7 8 6 4 4 5 6 12 10 7 15 21 15 5 2 3 3 4 2 2 2 2 2 4 1 2 3 2 2 2 2 3 3 3 3 3 2 3 4 4 6 8 7 6 8 11 10 10 10 9 13 20 24 25 24 22 19
14 11 14 20 19 18 24 32 33 27 12 6 10 6 1 1 1 3 10 8 4 5 6 6 6 4 4 5 3 5 7 6 8 7 4 6 6 4 9 11 5 7 17 16 7 1 3 2 3 3 3 1 3 4 7 9 6 3 3 4 2 1 2 1 1 2 4 3 2 2 5 10 7 5 8 10 10 10 11 9 9 16 24 26 25 23 18 15
15 7 9 17 18 17 25 28 21 13 5 3 6 4 2 2 2 3 6 5 2 2 3 4 6 6 6 5 3 4 6 5 7 6 4 7 8 4 8 14 11 9 9 7 6 4 3 3 3 2 2 3 5 4 4 7 5 5 6 6 7 5 4 2 2 1 2 3 4 3 6 13 7 5 7 8 8 9 11 10 10 15 23 23 20 17 14 11
16 7 5 11 14 19 26 20 8 7 6 4 6 7 2 3 3 2 2 3 2 1 3 3 3 4 5 5 4 5 7 5 6 6 5 7 9 5 8 16 20 20 13 5 4 5 4 3 4 3 4 6 5 3 1 3 2 3 1 3 5 4 4 5 4 4 2 1 1 4 4 12 5 5 6 5 5 6 8 11 13 16 20 18 14 13 12 9
18 10 7 11 15 23 23 10 3 6 3 2 4 8 6 2 2 2 3 4 3 1 2 1 1 3 4 3 4 6 7 5 7 9 6 6 8 7 9 17 21 19 11 3 1 4 4 3 3 2 3 2 3 3 2 1 3 2 1 2 6 7 6 5 4 4 4 4 3 4 4 12 3 1 2 2 5 7 7 12 16 17 18 16 13 12 10 8
19 13 9 10 18 26 19 4 3 5 3 2 2 6 10 7 5 4 3 4 4 2 3 2 2 3 3 3 5 8 9 7 7 11 8 3 5 7 12 21 22 14 8 6 7 10 8 3 4 2 2 3 3 2 2 2 1 3 3 4 7 8 7 3 1 3 2 9 10 6 8 12 3 3 3 3 4 8 9 12 14 15 17 17 15 13 10 9
13 11 10 13 25 32 19 8 8 5 3 5 2 5 10 7 9 13 8 3 3 2 3 2 2 3 3 4 4 6 10 10 7 8 7 4 2 3 10 22 24 15 10 9 12 15 9 3 6 7 6 7 7 5 4 2 2 3 4 7 9 10 12 7 3 4 7 10 9 7 12 12 4 3 3 4 4 6 10 11 13 16 18 18 17 15 13 11
7 7 5 10 25 30 20 15 17 9 3 6 2 5 10 7 7 14 13 7 6 6 3 1 2 3 2 4 5 5 9 11 6 4 5 6 3 1 7 20 25 20 12 10 15 14 4 2 9 11 11 13 12 8 5 7 7 7 9 12 13 14 15 11 5 8 9 4 5 12 18 16 13 5 3 5 4 4 9 10 13 19 21 21 20 18 16 13
3 3 5 8 13 15 11 10 15 10 7 10 5 3 10 10 4 6 12 11 9 10 6 2 2 4 2 5 6 5 6 7 5 4 5 5 3 2 3 12 16 17 12 11 17 13 3 2 10 13 14 15 12 6 7 9 10 13 14 14 14 14 14 12 14 15 8 4 8 19 12 11 21 14 6 6 6 5 7 11 18 22 22 23 23 20 19 17
5 3 7 12 9 5 6 9 12 10 10 11 6 2 7 10 6 5 9 9 7 10 7 2 5 10 8 7 5 3 5 5 6 6 5 4 3 1 2 3 7 12 10 9 14 10 3 5 10 10 14 16 12 5 8 7 5 6 10 12 14 16 17 19 23 20 9 6 16 19 7 10 23 16 8 9 8 8 12 18 22 22 22 24 24 22 23 21
8 6 5 10 7 6 11 16 15 12 11 11 7 5 7 11 12 9 6 5 4 9 10 7 10 14 13 10 6 4 6 6 7 8 5 5 5 4 3 2 4 8 7 6 6 4 3 6 7 7 8 14 14 6 9 8 3 2 7 11 13 19 23 24 23 19 13 13 21 19 10 16 21 10 7 12 16 21 24 23 23 23 25 27 26 25 26 25
9 5 3 4 5 6 12 16 13 9 10 12 9 7 9 11 14 11 7 8 6 6 10 14 14 11 12 13 10 9 9 8 8 8 5 5 5 4 4 3 2 3 5 4 2 2 3 5 4 4 4 11 14 6 7 8 6 5 7 10 14 19 20 18 17 15 14 18 20 15 15 21 15 5 7 14 20 23 22 22 25 29 32 32 31 30 30 29
13 9 5 2 3 4 7 10 11 7 6 10 10 9 9 12 14 10 6 11 12 8 11 18 16 8 9 12 12 14 18 14 12 8 4 4 6 4 4 4 6 5 4 4 2 2 3 2 1 3 3 12 14 7 6 6 4 5 10 16 21 16 11 11 13 14 14 15 15 11 15 20 9 5 7 13 17 18 19 23 29 34 37 38 36 35 36 36
16 15 12 6 2 2 3 3 8 9 6 9 12 11 10 12 13 11 5 9 16 19 19 19 13 6 6 11 16 23 27 23 19 13 6 5 5 4 4 5 8 8 5 4 2 2 4 3 1 3 5 12 12 5 7 5 2 6 15 22 21 12 9 11 14 16 15 13 12 11 17 20 9 4 6 9 10 14 19 26 32 35 38 39 38 40 41 41
Wind_Direction
208 208 205 202 200 199 197 197 196 195 194 194 195 195 196 196 197 197 194 190 188 186 183 181 182 184 185 190 194 197 208 212 208 196 167 161 158 147 139 128 121 106 115 165 241 245 250 217 149 141 148 123 105 111 110 108 116 113 99 96 146 173 194 190 177 186 160 166 192 182 178 168 160 174 173 180 194 206 209 212 217 222 226 231 239 249 242 215
209 209 206 204 203 201 199 198 197 195 196 196 197 197 198 198 199 200 196 192 188 187 185 183 186 184 185 190 195 200 206 215 210 190 165 159 160 152 145 138 138 111 15 316 282 242 215 197 177 156 158 129 94 109 112 87 85 85 102 105 193 194 205 196 179 178 129 137 176 175 181 181 174 175 174 184 204 200 211 224 225 231 235 236 243 246 238 220
210 209 207 206 204 203 200 200 198 197 197 198 199 199 199 200 201 202 199 194 188 188 186 187 189 185 186 190 192 190 190 197 176 172 164 159 161 158 155 177 264 286 288 293 273 201 161 152 143 157 146 116 88 112 102 62 71 65 98 103 230 206 213 197 181 178 126 126 164 167 180 186 181 176 181 201 209 203 221 228 225 234 242 243 245 244 236 224
211 210 208 207 206 204 202 201 199 199 200 200 201 201 201 202 203 203 200 195 189 189 188 189 190 185 188 188 186 177 152 129 140 154 162 162 164 168 198 273 303 295 285 270 203 157 149 140 137 146 125 101 76 103 68 39 75 68 100 154 215 177 144 176 187 191 166 137 163 167 170 188 191 183 193 194 183 245 240 239 238 245 251 250 248 247 241 232
210 210 209 209 207 206 204 202 201 202 203 203 203 203 204 204 204 203 199 195 191 190 190 192 190 187 188 186 184 169 136 108 153 156 161 167 170 187 273 310 328 326 291 156 163 150 148 146 145 138 106 86 49 75 44 41 88 77 41 210 143 121 107 151 176 182 169 146 159 160 159 192 191 192 210 199 201 242 247 254 251 250 252 250 249 249 247 240
208 210 209 209 208 207 205 204 205 205 206 205 206 206 205 206 205 202 198 194 192 191 192 194 191 187 187 186 180 173 148 103 171 165 161 171 178 208 327 5 8 36 84 134 148 142 144 152 154 132 91 71 36 67 64 49 97 90 15 175 125 88 73 111 133 158 163 157 158 159 173 197 185 208 231 221 231 244 249 261 252 246 247 251 252 248 246 244
205 208 208 208 208 208 207 208 209 208 209 209 209 209 208 208 206 202 196 193 193 193 193 193 191 188 188 186 175 182 177 93 163 169 165 170 181 208 46 41 50 61 83 122 141 141 141 160 150 114 90 76 74 83 66 61 86 100 106 174 144 59 53 103 121 144 149 158 163 165 184 193 196 219 250 243 246 251 255 258 258 257 258 260 257 250 245 241
204 206 207 207 209 210 209 210 211 211 212 211 212 212 211 210 206 200 193 193 194 193 194 192 189 188 188 186 180 188 196 140 168 172 166 170 179 174 89 50 70 72 86 105 119 132 131 149 143 115 88 84 112 105 71 70 57 67 124 182 148 69 63 121 133 148 149 154 167 184 199 208 238 246 260 259 259 257 257 260 261 261 261 262 257 251 244 237
203 205 205 208 210 210 211 213 213 213 213 213 215 214 213 210 204 198 193 193 194 193 194 191 189 190 189 188 182 181 196 189 184 177 165 168 174 154 105 71 86 87 94 94 97 126 132 141 146 133 124 119 109 82 61 77 39 61 123 138 117 70 67 132 155 161 173 186 183 209 242 257 267 282 269 265 265 257 253 257 259 260 260 259 254 246 239 235
202 205 206 208 211 211 213 214 214 214 214 215 215 214 212 207 201 196 194 193 192 192 191 190 191 189 189 189 178 175 200 195 191 185 170 164 173 158 120 100 95 93 95 90 84 101 118 126 126 120 118 115 102 66 45 78 111 102 108 104 79 52 47 145 181 180 196 214 221 211 245 283 254 285 259 262 266 253 250 251 253 256 256 255 250 240 235 233
202 204 206 209 211 213 214 213 213 213 214 215 213 210 207 202 199 195 193 192 189 189 188 190 191 190 189 187 182 177 185 187 195 192 183 175 178 172 149 123 102 94 98 97 91 94 102 111 120 119 109 113 104 70 66 90 103 93 106 102 33 15 353 285 231 232 212 219 258 210 267 300 133 178 245 252 261 261 256 253 251 250 250 249 243 237 234 233
204 205 206 208 210 211 213 213 213 212 212 210 206 203 201 199 196 192 191 188 186 186 187 190 190 191 188 192 205 201 171 169 190 197 194 191 185 186 175 134 117 102 99 103 98 94 97 102 113 116 118 131 124 74 87 94 93 80 88 117 343 5 2 316 313 250 209 227 266 142 322 293 216 228 245 254 261 261 255 251 249 245 244 242 239 236 234 235
202 203 205 206 207 209 210 211 211 209 206 203 200 198 196 195 191 187 187 184 185 185 187 189 189 191 189 196 219 218 223 228 220 204 200 200 196 197 189 157 137 118 108 107 105 97 93 86 94 117 119 123 121 115 114 88 91 81 54 71 347 5 348 316 7 217 182 190 169 134 274 276 249 244 246 255 256 253 250 246 246 244 241 239 237 237 236 236
202 204 205 205 206 206 206 206 205 202 200 198 195 194 192 189 186 184 183 181 183 183 184 186 185 190 192 201 220 220 230 235 232 218 204 203 202 201 195 171 144 131 118 102 110 102 88 86 100 113 108 107 119 121 103 47 62 74 28 39 37 11 279 293 11 158 162 195 174 144 251 264 267 263 257 257 248 244 248 248 248 246 242 241 240 240 239 239
204 205 205 204 203 201 200 198 196 195 195 195 192 189 185 182 182 180 178 179 179 179 179 180 180 184 192 216 227 225 228 227 225 219 205 202 202 202 195 178 158 144 132 118 116 106 96 105 111 100 94 109 120 109 40 14 30 38 67 325 356 143 269 306 320 158 152 193 173 153 247 271 272 273 282 258 236 234 244 249 249 247 246 246 245 245 244 243
197 199 199 198 195 193 193 190 188 189 190 190 187 182 178 177 177 175 174 174 173 173 172 173 180 184 190 217 220 225 224 221 217 213 207 200 199 199 194 187 171 150 140 129 118 115 116 115 103 91 96 115 114 86 52 29 358 2 67 222 268 133 283 315 348 179 89 127 181 192 238 278 270 264 329 268 232 234 241 248 249 247 249 248 249 250 249 248
185 187 187 188 189 189 188 185 183 184 185 184 181 176 174 172 171 171 169 168 167 166 166 168 176 188 223 226 217 224 218 214 210 207 202 195 195 196 196 192 170 163 156 135 132 127 123 116 106 93 78 78 82 87 68 7 311 322 23 117 232 215 236 293 318 310 39 95 218 226 224 256 260 264 287 292 263 247 244 252 253 249 250 251 252 252 251 250
181 182 183 183 185 184 183 182 181 182 181 180 177 174 172 169 169 168 166 166 160 150 154 162 152 163 237 223 214 219 211 207 204 200 194 190 191 190 194 190 167 168 148 129 130 116 107 96 98 87 40 33 53 91 117 216 198 194 168 138 245 246 234 255 276 278 60 68 235 226 244 258 266 274 276 277 270 253 253 259 259 256 255 255 254 253 253 251
184 184 184 184 184 183 182 182 182 182 180 177 176 173 167 161 161 164 167 167 159 141 153 182 170 150 215 210 204 201 196 194 195 195 191 187 186 186 187 177 166 159 137 133 101 88 100 78 80 101 123 195 191 149 169 194 161 153 166 146 157 206 251 241 249 271 178 186 246 231 239 255 263 274 275 273 265 253 258 261 261 261 259 257 255 254 254 253
187 188 188 188 186 185 185 183 183 183 179 178 174 168 160 151 137 148 173 175 178 176 176 188 188 183 96 178 197 195 181 180 187 189 188 187 185 183 175 161 155 132 111 147 150 73 83 88 156 210 206 197 197 163 143 147 121 117 123 112 149 198 266 253 254 302 331 183 256 239 239 262 264 267 269 271 266 251 254 256 257 259 258 258 257 256 256 256
190 192 193 193 191 189 189 187 186 183 180 180 174 166 163 161 139 169 185 188 200 199 191 180 193 202 189 122 183 189 178 172 184 188 186 186 181 179 174 158 135 113 28 114 113 63 81 128 228 226 193 177 173 138 117 104 88 94 118 122 182 213 254 254 239 318 341 178 269 278 269 264 259 263 269 269 259 244 248 248 253 256 258 260 260 259 259 258
196 197 197 198 197 194 193 190 189 186 183 182 178 171 169 175 168 167 176 187 211 211 217 208 201 211 216 211 188 187 180 163 181 188 185 182 180 184 178 150 119 145 206 92 99 40 68 212 245 194 139 110 93 108 108 100 88 83 110 125 235 239 271 288 319 336 15 176 268 314 296 266 255 256 261 258 248 250 252 249 253 257 259 261 261 261 261 259
203 203 203 204 202 200 196 193 192 190 188 185 182 176 169 177 177 162 147 124 214 219 225 226 224 223 220 220 208 197 188 172 181 187 187 186 183 185 171 145 109 130 154 170 156 132 152 250 246 166 139 104 76 86 96 96 92 100 124 133 239 259 283 290 307 324 17 154 275 308 290 270 252 246 254 255 252 258 261 258 259 258 257 260 261 262 263 260
208 206 208 208 208 206 200 196 197 194 194 190 184 182 174 166 171 173 137 61 317 235 225 228 229 229 226 223 216 205 198 199 197 189 191 188 177 173 171 146 108 124 185 195 164 166 218 250 173 138 133 106 106 113 115 124 179 262 171 165 207 219 213 234 286 320 339 3 8 337 297 283 259 251 260 266 261 261 262 262 261 258 257 259 260 260 261 261
208 208 210 210 211 212 205 200 199 196 199 194 186 187 184 168 154 158 122 54 327 263 232 226 225 231 227 222 217 203 200 214 214 199 195 191 179 162 147 138 133 178 200 159 134 198 250 211 138 117 80 96 115 147 175 159 177 291 232 200 202 188 199 234 330 2 9 337 344 17 320 290 287 259 260 281 302 269 265 261 259 259 258 258 257 258 259 259
211 210 209 209 212 212 208 204 197 197 200 196 191 187 186 178 154 154 127 59 317 248 196 203 205 217 214 208 197 184 204 236 214 202 193 191 187 166 135 131 127 192 179 139 134 217 237 156 127 120 122 116 113 179 222 168 131 305 250 207 193 154 151 200 282 15 337 266 277 62 37 284 288 243 241 276 306 286 285 275 264 262 261 260 260 262 262 261
214 212 210 209 210 209 207 204 199 196 194 194 193 187 183 172 156 161 124 37 293 201 154 176 181 189 195 185 178 175 199 196 182 192 187 186 191 180 167 164 113 175 165 134 176 238 165 137 93 108 117 116 130 204 226 157 129 240 238 152 148 148 169 182 146 162 233 273 308 65 116 269 286 257 248 299 301 290 290 276 269 270 271 270 268 267 266 263
206 213 215 205 205 207 203 204 204 195 192 195 189 181 174 161 153 145 115 37 260 154 142 170 166 176 178 172 175 168 135 149 147 184 183 181 188 182 183 192 171 175 169 147 205 253 157 171 183 154 127 146 179 222 197 151 128 246 198 123 134 146 151 135 113 129 327 341 315 280 134 209 275 269 303 341 288 269 269 261 267 291 291 280 272 267 264 260
199 220 222 195 197 203 200 202 200 188 189 188 177 172 161 151 147 110 90 207 192 113 126 158 155 165 158 160 176 156 123 139 109 171 177 178 185 179 175 194 166 137 158 148 190 238 84 183 192 158 147 192 197 298 190 163 145 173 142 98 86 83 80 87 95 104 55 330 255 201 170 199 271 263 212 31 220 239 255 258 274 298 292 272 260 259 257 254
203 224 227 197 196 201 199 197 191 181 178 171 167 163 152 146 139 100 116 226 188 100 110 144 159 161 147 146 187 128 116 83 107 146 161 172 180 164 119 155 135 109 70 8 111 230 350 87 178 161 163 167 131 69 34 110 134 138 121 77 63 41 39 57 43 76 70 289 256 207 195 183 277 270 197 197 216 216 239 267 288 299 291 236 223 254 261 260
206 218 230 220 207 202 200 193 185 178 170 163 160 156 149 138 101 134 192 225 61 117 114 136 171 151 151 149 174 180 101 48 136 145 149 154 161 141 117 132 106 82 354 317 286 313 348 68 227 192 156 128 106 66 35 68 121 121 93 89 82 359 11 30 355 44 119 252 261 252 248 169 241 255 237 248 259 229 219 246 272 285 269 187 193 291 292 278
213 215 226 233 223 205 197 188 181 175 165 160 159 156 149 118 65 204 211 89 111 196 155 165 202 160 163 148 140 167 120 90 167 155 147 147 158 175 169 177 162 106 284 238 240 333 288 237 263 139 168 157 123 77 47 23 41 81 95 112 100 338 349 341 305 69 220 246 260 273 274 233 243 254 259 263 266 245 224 228 241 255 252 236 251 276 279 268
219 220 224 231 233 211 188 179 178 172 163 159 160 156 135 125 200 213 215 189 209 220 134 124 128 141 152 143 155 173 125 154 184 165 147 138 163 215 245 223 170 139 203 183 144 163 262 296 273 132 213 198 170 141 142 223 195 155 146 138 137 138 159 263 267 270 266 261 276 285 219 247 270 270 242 242 248 246 241 244 249 256 259 261 266 269 263 251
218 225 227 229 235 220 191 180 177 171 164 161 159 148 131 191 211 209 208 207 23 31 63 94 106 110 131 151 205 180 137 182 168 143 125 125 158 218 243 237 210 134 108 141 155 179 213 279 213 172 199 189 185 181 156 144 155 184 161 136 157 163 168 213 219 220 255 283 294 286 214 204 226 266 240 239 256 258 253 254 258 261 262 263 266 264 256 250
220 225 228 228 229 221 204 186 178 173 166 162 159 161 176 202 221 210 200 180 100 60 39 59 100 113 151 260 290 193 160 194 145 119 141 161 183 204 198 214 208 164 136 176 207 167 201 262 249 280 343 165 178 197 118 111 135 212 124 116 191 191 154 159 194 180 183 322 303 245 227 218 217 270 268 256 269 270 258 257 257 257 258 258 260 261 259 258
225 221 222 225 225 220 208 192 180 176 171 163 161 193 199 212 210 190 174 142 145 138 103 73 81 108 177 216 259 220 189 129 146 138 201 206 226 212 201 215 198 181 178 178 180 139 169 274 300 347 12 145 174 211 111 128 177 165 134 183 219 172 120 115 232 68 73 268 273 226 252 287 311 280 267 245 251 263 267 267 256 252 254 255 256 258 260 262
222 217 215 217 220 221 212 198 185 180 176 170 184 191 208 226 191 148 163 147 144 143 134 170 178 143 174 183 199 201 185 137 159 170 194 198 245 209 201 232 195 190 198 180 188 198 154 245 309 32 187 272 6 82 67 53 110 125 182 207 185 108 94 108 205 354 40 249 272 291 259 285 295 273 296 106 232 250 258 260 256 255 254 251 253 256 259 262
214 216 216 217 221 224 216 204 194 185 176 161 214 203 212 224 187 129 159 145 136 149 161 200 192 161 177 186 194 184 174 175 173 183 181 183 249 203 177 207 202 196 201 187 206 232 147 215 300 20 203 287 11 104 93 22 66 123 181 180 130 141 187 120 150 203 183 245 278 298 281 264 224 227 268 161 215 233 241 242 248 254 248 246 250 253 257 260
208 215 231 231 225 225 224 213 196 182 170 162 212 217 229 217 188 113 156 152 143 163 187 201 185 154 179 175 164 167 181 186 166 174 182 181 235 204 174 191 203 193 193 181 184 227 142 206 272 311 257 311 18 167 186 192 44 56 91 139 108 131 171 163 149 170 178 215 269 310 311 263 225 195 186 208 213 214 225 230 235 240 239 244 249 250 256 264
198 207 243 240 224 223 227 213 191 174 170 190 201 213 311 238 245 163 166 160 147 168 191 196 170 159 176 167 154 168 185 188 168 178 202 187 211 232 188 184 165 171 182 179 186 166 109 199 242 292 312 220 187 211 195 182 167 145 160 173 187 134 124 170 127 118 138 155 207 279 285 266 243 175 182 206 211 206 212 214 219 233 233 234 243 252 259 265
188 197 247 231 223 221 210 200 184 167 176 221 218 227 344 358 293 215 180 163 143 143 147 162 170 169 160 156 187 185 169 176 179 188 215 201 206 238 203 183 158 138 150 170 198 192 160 180 178 191 242 205 224 254 218 195 178 174 192 190 184 162 123 140 226 236 139 159 189 177 266 272 253 174 193 204 205 206 210 214 218 233 237 230 229 243 254 251
190 206 233 204 214 213 196 189 172 154 172 208 214 207 209 358 335 278 221 170 159 74 99 121 157 167 163 163 174 166 160 171 187 193 216 216 210 212 200 185 165 151 145 151 204 181 138 120 142 192 220 214 243 292 256 217 131 108 201 188 155 140 133 151 200 225 165 194 207 116 263 273 250 165 200 207 221 227 222 232 228 225 239 246 235 231 237 233
197 208 210 189 203 201 190 191 178 158 174 250 204 198 203 258 337 312 264 215 195 127 126 154 151 171 189 162 141 164 176 182 192 199 214 226 220 212 189 176 163 152 147 139 195 146 124 128 172 243 299 306 326 343 357 16 87 108 271 178 164 184 185 171 186 183 157 200 191 111 248 262 265 101 253 255 273 273 244 239 241 227 228 245 247 235 227 218
197 204 206 196 202 196 188 183 168 176 198 139 140 208 206 221 242 235 244 221 197 133 138 181 173 181 197 145 148 180 187 192 204 206 210 215 218 211 184 173 167 162 171 182 175 167 168 183 167 173 300 317 330 323 321 350 112 189 225 194 189 189 163 129 110 117 199 219 191 164 242 253 288 23 328 5 335 296 262 240 253 250 233 233 238 234 225 216
186 198 211 200 196 195 195 190 174 181 185 156 163 207 195 218 232 224 238 259 223 178 161 196 166 149 161 153 163 188 194 208 220 206 210 223 224 216 186 177 175 182 199 193 172 167 170 183 168 179 220 228 233 233 208 176 156 208 221 187 191 186 171 178 188 173 229 222 178 187 238 251 306 29 313 333 3 303 273 252 253 252 241 239 240 234 227 221
175 190 208 195 196 201 210 198 179 177 173 169 187 196 193 214 220 212 223 241 247 229 207 249 165 139 130 165 180 201 211 224 226 177 198 215 213 258 191 184 185 192 197 180 166 161 150 219 192 197 214 221 232 235 180 141 149 201 212 188 192 200 189 189 197 204 219 196 171 221 232 249 270 253 230 290 285 257 270 269 257 246 236 237 242 239 235 232
217 193 172 175 198 213 227 196 176 179 180 179 182 168 193 211 212 197 208 215 228 222 217 282 199 189 202 177 186 211 209 215 210 180 193 201 199 340 191 189 195 198 192 174 169 160 97 229 211 217 225 231 241 226 169 162 177 200 205 190 194 200 189 193 213 217 198 126 234 239 221 240 261 250 207 251 258 241 260 258 247 240 234 239 245 243 239 237
236 241 186 180 186 208 219 197 184 183 175 175 182 152 179 201 202 192 202 204 210 205 203 261 220 213 218 195 183 203 187 196 218 210 199 179 155 79 151 190 212 204 191 178 176 164 135 215 217 221 230 244 253 207 168 189 192 189 200 196 193 194 192 202 217 221 192 168 245 250 200 214 253 254 217 218 219 219 242 245 239 238 244 250 252 246 239 236
232 274 243 203 204 207 203 198 188 184 176 167 177 186 179 194 203 199 185 171 201 205 197 217 224 215 219 217 204 205 194 192 219 222 201 175 169 162 168 190 226 203 180 171 183 166 166 214 219 203 221 251 255 211 168 188 193 179 209 206 199 200 202 207 217 223 213 219 243 255 252 250 256 249 206 215 220 227 241 246 242 245 251 252 251 246 238 235
228 252 264 240 263 243 206 194 184 187 187 176 185 202 190 196 204 199 178 170 186 197 194 217 229 207 208 221 217 224 225 211 223 224 180 169 189 186 191 186 155 170 169 169 194 175 184 214 212 163 206 256 251 213 149 169 200 233 235 226 218 213 209 212 220 223 220 232 244 256 270 267 258 192 190 218 219 225 237 243 243 246 249 250 249 245 239 238
238 244 258 292 306 255 216 195 184 189 192 183 193 200 194 207 204 188 188 197 195 184 186 212 224 198 198 218 215 228 232 224 233 235 179 198 225 204 206 181 127 130 167 173 155 144 185 219 73 112 208 251 249 221 147 148 185 247 258 246 232 218 205 212 220 217 213 225 240 249 257 258 246 132 182 211 209 216 228 234 239 244 247 247 247 246 245 246
239 246 253 259 276 230 236 224 194 194 193 191 199 195 193 208 194 166 187 217 207 208 206 207 210 184 193 214 215 226 229 227 237 245 234 244 239 195 207 190 151 145 154 158 158 154 161 171 165 150 205 251 256 200 135 127 165 246 251 249 239 215 189 210 225 224 213 209 220 228 240 248 238 148 202 214 202 212 222 231 240 245 247 248 248 249 250 252